Tracking 25198 objects as of 16-Jan-2022
HD Live streaming from Space Station
objects crossing your sky now

THOR ABLESTAR DEB

Track THOR ABLESTAR DEB now!
10-day predictions


NORAD ID: 461
Int'l Code: 1961-015EX
Perigee: 669.4 km
Apogee: 728.8 km
Inclination: 67.5 °
Period: 98.6 minutes
Semi major axis: 7070 km
RCS: 0.1159 m2 (medium)
Launch date: June 29, 1961
Source: United States (US)
Launch site: AIR FORCE EASTERN TEST RANGE (AFETR)

Note: This is SATELLITE DEBRIS
aabbcc
Your satellite tracking list
Your tracking list is empty




NASA's NSSDC Master Catalog

Two Line Element Set (TLE):
1   461U 61015EX  22015.90600999  .00001883  00000-0  40291-3 0  9995
2   461  67.5065 172.3169 0042007  92.5446 268.0484 14.60376066148075
Source of the keplerian elements: AFSPC